{"data":{"norad_id":62651,"intl_designator":"2025-009AU","name":"FLOCK 4G-21","alt_names":[],"object_type":"PAYLOAD","status":"ACTIVE","operator":null,"country":"US","launch_date":"2025-01-14","launch_site_code":"AFWTR","launch_vehicle":null,"mission":null,"orbit_class":"UNKNOWN","rcs_meters":null,"size_class":null,"mass_kg":null,"dimensions":null,"purposes":["earth_obs"],"wikipedia_slug":null,"has_3d_model":false,"image_url":null,"decayed_at":null,"tle_current":{"epoch":"2026-09-19T11:18:44.099136Z","epoch_age_seconds":103420,"freshness":"FRESH","line1":"1 62651U 25009AU  26262.47134374  .00032200  00000+0  88053-3 0  9990","line2":"2 62651  97.3930 345.1284 0001225   7.1197 353.0065 15.37306130 93413","mean_motion":15.3730613,"eccentricity":0.0001225,"inclination_deg":97.393,"raan_deg":345.1284,"arg_perigee_deg":7.1197,"mean_anomaly_deg":353.0065,"bstar":0.00088053,"rev_number":9341,"period_min":93.670347883151,"perigee_km":453.24227295913,"apogee_km":454.9161659329,"semimajor_km":6832.216219446,"source":"CELESTRAK","updated_at":"2026-09-20T09:00:34.720913Z"}}}